Orbital Elements at Epoch 2459200.5 (2020-Dec-17.0) TDB
Reference: JPL 20 (heliocentric ecliptic J2000)
Element | Value | Uncertainty (1-sigma) | Units |
e | .3490725023692341 | 7.7178e-05 | |
a | 1.166818537904455 | 6.8114e-05 | au |
q | .7595142710673362 | 4.5727e-05 | au |
i | 5.613914717950895 | 0.0014154 | deg |
node | 183.6022157359418 | 0.00044438 | deg |
peri | 272.7144418446766 | 0.001185 | deg |
M | 344.6593342217957 | 0.25778 | deg |
tp | 2459220.117565661227 (2021-Jan-05.61756566) | 0.33136 | TDB |
period | 460.3661757676589 1.26 | 0.040311 0.0001104 | d yr |
n | .7819862078261968 | 6.8474e-05 | deg/d |
Q | 1.574122804741575 | 9.1891e-05 | au |
|
| | Orbit Determination Parameters
Additional Information
|